Погода в Саривоне

Северная Корея     38°30′45″N   125°45′24″E
темп.,
°C
ветер,
м/с
пор.,
м/с
влажн.,
%
обл.,
%
осадки,
мм/ч
давл.,
гПа
погр.,
м
9 мая, вс
вс900:00+9зюз22710 0.0 100611
03:00+8юз22730 0.0 100621
06:00+8зюз22740 0.0 100832
09:00+16зсз712450 0.0 10091158
12:00+19зсз916255 0.0 10092520
15:00+19сз814260 0.0 10092068
18:00+18зсз59347 0.0 1009660
21:00+12юз224297 0.0 101012
10 мая, пн
пн1000:00+12в2242100 0.0 101113
03:00+12ююз2341100 0.0 101244
06:00+12ю2457100 0.0 101386
09:00+14юз4565100 0.0 1015557
12:00+17ю115495 0.0 10141220
15:00+20с2441100 0.0 10131907
18:00+18ссз554938 0.0 10121042
21:00+13ссз3570100 0.0 101596
11 мая, вт
вт1100:00+11с2276100 0.0 101524
03:00+10ссв2277100 0.0 101519
06:00+10всв1182100 0.0 101610
09:00+17вюв23546 0.0 1016384
12:00+24вюв46325 0.0 10151564
15:00+25вюв672866 0.0 10131826
18:00+24вюв353812 0.0 1012280
21:00+17в2252100 0.0 101422
12 мая, ср
ср1200:00+14вюв3357100 0.0 101435
03:00+13вюв366040 0.0 101488
06:00+13в3559100 0.0 1014160
09:00+16юв3551100 0.0 1014292
12:00+20юв45400 0.0 1014878
15:00+25ююв34310 0.0 10111576
18:00+23юз444225 0.0 1011431
21:00+17ссз225411 0.0 101317
13 мая, чт
чт1300:00+17ссз2348100 0.0 101372
03:00+17ссв1149100 0.0 101211
06:00+17ссв1153100 0.0 101211
09:00+21с114619 0.0 1012333
12:00+25с32450 0.0 1011882
15:00+27ссз434316 0.0 10101867
18:00+24сз55560 0.0 1009610
21:00+18ссз34760 0.0 101083